Regional Weather Roundup
Issued by NWS

Home | Current Version | Previous Version | Text Only | Print | Product List | Glossary Off
Versions: 1 2 3 4 5 6 7 8 9 10 11 12 13 14 15 16 17 18 19 20 21 22 23 24 25 26 27 28 29 30 31 32 33 34 35 36 37 38 39 40 41 42 43 44 45 46 47 48 49 50

879
ASUS45 KTFX 020910
RWRMT
MONTANA REGIONAL WEATHER ROUNDUP
NATIONAL WEATHER SERVICE GREAT FALLS MT
300 AM MDT MON MAY 02 2016

NOTE: "FAIR" INDICATES FEW OR NO CLOUDS BELOW 12000 FEET WITH NO
SIGNIFICANT WEATHER AND/OR OBSTRUCTIONS TO VISIBILITY.

MTZ001>007-043-021000-
WEST OF THE DIVIDE

CITY           SKY/WX    TMP DP  RH WIND       PRES   REMARKS
KALISPELL      CLEAR     37  36  96 CALM      30.15R
MISSOULA       CLEAR     43  35  73 CALM      30.17S
BUTTE          CLEAR     30  25  81 SE6       30.23S WCI  24
MULLAN PASS    CLEAR     46  28  49 SE8       30.19S
ANACONDA         N/A     36  28  75 S6        30.21S WCI  31
DEER LODGE       N/A     36  30  80 CALM      30.22S
EUREKA           N/A     37  34  87 CALM      30.16S
HAMILTON         N/A     43  36  75 S6        30.16S
LIBBY            N/A     39  34  81 CALM      30.16S
$$

MTZ008-052>055-021000-
SOUTHWEST MONTANA

CITY           SKY/WX    TMP DP  RH WIND       PRES   REMARKS
BOZEMAN        CLEAR     35  28  75 SW6       30.20F WCI  30
DILLON         CLEAR     35  29  78 S8        30.20S WCI  29
ENNIS          CLEAR     32  28  86 NE5       30.26S
$$

MTZ009-010-012-014-046-048-049-054-021000-
EAST SLOPES AND CENTRAL MONTANA

CITY           SKY/WX    TMP DP  RH WIND       PRES   REMARKS
CUT BANK       CLEAR     33  30  88 W6        30.18S WCI  28
GREAT FALLS    CLOUDY    35  31  85 SW8       30.18S WCI  29
MALMSTROM AFB  CLOUDY    38  34  86 S2        30.19S
HELENA         CLEAR     42  33  70 W5        30.20S
CHOTEAU          N/A     39  34  81 SW7       30.19F
$$

MTZ011-013-016-021-045-047-050-051-021000-
NORTH CENTRAL MONTANA

CITY           SKY/WX    TMP DP  RH WIND       PRES   REMARKS
HAVRE          MOCLDY    37  35  92 W6        30.15F
LEWISTOWN      CLEAR     34  28  79 SE6       30.20S WCI  29
N BAR RANCH      N/A     34  28  80 NW6       30.22S WCI  29
CHINOOK          N/A     43  37  81 W3        30.15F
$$

MTZ017>020-022>027-061-062-021000-
NORTHEAST MONTANA

CITY           SKY/WX    TMP DP  RH WIND       PRES   REMARKS
GLASGOW        CLEAR     47  34  60 W3        30.13F
JORDAN           N/A     38  36  92 W6        30.16F
SIDNEY         PTCLDY    50  32  50 W8        30.10F
WOLF POINT     CLOUDY    46  37  71 SW8       30.12F
PLENTYWOOD       N/A     48  34  57 W3        30.08S
POPLAR           N/A     45  36  70 SW6       30.11F
SCOBEY           N/A     48  28  46 CALM      30.08F
$$

MTZ028>42-056>058-021000-
SOUTHCENTRAL AND SOUTHEAST MONTANA

CITY           SKY/WX    TMP DP  RH WIND       PRES   REMARKS
BAKER          PTCLDY    36  31  82 CALM      30.17F
BILLINGS       CLOUDY    43  33  68 SW14      30.19F
LIVINGSTON     CLOUDY    32  26  78 NW6       30.22F WCI  26
MILES CITY     MOCLDY    43  35  73 S5        30.17F
FORSYTH          N/A     45  34  65 CALM      30.17F
LAUREL           N/A     36  24  62 W2        30.15F
ROUNDUP          N/A     36  29  76 S5        30.09S
$$

REGIONAL REPORTS...DAKOTAS

CITY           SKY/WX    TMP DP  RH WIND       PRES   REMARKS
WILLISTON      CLOUDY    52  34  50 W17       30.06F
MINOT          CLOUDY    59  30  33 SW10      30.03R
DICKINSON      MOCLDY    39  30  70 W12       30.10F WCI  32
BEACH            N/A     41  32  70 SW10      30.17F
CROSBY         CLOUDY    54  32  43 W16       30.04F
WATFORD CITY   MOCLDY    46  34  61 SW13      30.08F
BISMARCK       CLOUDY    44  32  62 CALM      30.09F
GRAND FORKS    MOCLDY    42  32  67 S6        30.06F
FARGO          MOCLDY    43  30  60 S3        30.08F
BUFFALO SD       N/A     41  29  62 W8        30.09F
RAPID CITY     CLEAR     36  29  75 W7        30.18F WCI  30
$$

REGIONAL REPORTS...WYOMING/IDAHO/WASHINGTON

CITY           SKY/WX    TMP DP  RH WIND       PRES   REMARKS
GILLETTE       CLEAR     35  29  78 S10       30.20F WCI  27
SHERIDAN       CLEAR     35  30  82 S3        30.19F
BUFFALO WY       N/A    N/A N/A N/A MISG      30.21F
CODY           CLEAR     37  28  70 SW6       30.22F
YELLOWSTONE LA   N/A     23  18  81 CALM      30.30R
IDAHO FALLS    CLEAR     36  26  67 NE6       30.20R WCI  31
SALMON         CLEAR     37  28  70 S3        30.17S
BOISE          CLEAR     51  38  60 SE6       30.08F
SPOKANE        CLEAR     56  40  55 E8        30.06F
$$

REGIONAL REPORTS...ALBERTA

CITY           SKY/WX    TMP DP  RH WIND       PRES   REMARKS
EDMONTON       PTCLDY    50  36  57 W6        30.06S
CALGARY        CLEAR     45  27  49 CALM      30.13F
LETHBRIDGE     CLEAR     37  32  81 W5        30.14S
MEDICINE HAT   CLEAR     45  37  76 SW9       30.13S
WATERTON GATE    N/A     39  34  81 SW8         N/A
MILK RIVER       N/A     36  32  87 W5          N/A
ONEFOUR          N/A     45  32  61 NW2         N/A
$$

REGIONAL REPORTS...SASKATCHEWAN

CITY           SKY/WX    TMP DP  RH WIND       PRES   REMARKS
SWIFT CURRENT  CLEAR     46  36  66 W13       30.08F
REGINA         PTCLDY    37  32  81 NW5       30.02F
SASKATOON      CLEAR     46  32  57 S3        30.03S
CYPRESS HILLS    N/A     45  30  57 W2          N/A
VAL MARIE        N/A     39  34  81 S7          N/A
ROCKGLEN         N/A     43  34  70 W12         N/A
ASSINIBOIA       N/A     41  36  81 S3          N/A
$$




USA.gov is the U.S. government's official web portal to all federal, state and local government web resources and services.